Weather History for Almeria, Spain

Change the Weather History Date:

Thursday, December 13, 2012

  Actual Average Record
Temperature  
Mean Temperature 56 °F -  
Max Temperature 61 °F 59 °F 68 °F (1998)
Min Temperature 50 °F 47 °F 41 °F (2005)
Degree Days  
Heating Degree Days 10    
Growing Degree Days 6 (Base 50)    
Moisture  
Dew Point 52 °F    
Average Humidity 81    
Maximum Humidity 94    
Minimum Humidity 68    
Precipitation  
Precipitation 0.00 in 0.03 in - ()
Sea Level Pressure  
Sea Level Pressure 29.98 in    
Wind  
Wind Speed 5 mph ()    
Max Wind Speed 17 mph    
Max Gust Speed -    
Visibility 6.4 miles    
Events      
Averages and records for this station are not official NWS values.
T = Trace of Precipitation, MM = Missing Value Source: Averaged Metar Reports

Daily Weather History Graph

Daily Weather History Graph

Search for Another Location

Airport:

Trip Planner

Search our weather history database for the weather conditions in past years. The results will help you decide how hot, cold, wet, or windy it might be!

Date:

Astronomy

Dec. 13, 2012 Rise Set
Actual Time 8:13 AM CET 5:53 PM CET
Civil Twilight 7:44 AM CET 6:22 PM CET
Nautical Twilight 7:12 AM CET 6:55 PM CET
Astronomical Twilight 6:40 AM CET 7:26 PM CET
Moon 8:07 AM CET (12/13) 6:19 PM CET (12/13)
Length of Visible Light 10h 37m
Length of Day
9h 39m
New Moon, 0% of the Moon is Illuminated
Dec 13
New Moon
Dec 20
First Quarter
Dec 28
Full
Jan 5
Last Quarter
Jan 11
New

Hourly Weather History & Observations

Time (CET) Temp. Dew Point Humidity Pressure Visibility Wind Dir Wind Speed Gust Speed Precip Events Conditions
1:00 AM 54 °F 47 °F 70% 30.00 in - NNW 4.6 mph - -  
5:00 AM 53.6 °F 48.2 °F 82% 29.95 in 6.2 mi NNW 6.9 mph - N/A   Partly Cloudy
5:30 AM 51.8 °F 48.2 °F 88% 29.95 in 6.2 mi Variable 1.2 mph - N/A   Partly Cloudy
6:00 AM 53.6 °F 48.2 °F 82% 29.95 in 6.2 mi Variable 1.2 mph - N/A   Scattered Clouds
6:30 AM 53.6 °F 48.2 °F 82% 29.95 in 6.2 mi North 3.5 mph - N/A   Scattered Clouds
7:00 AM 52 °F 47 °F 76% 29.98 in 12 mi North 3.5 mph - -   Partly Cloudy
7:00 AM 53.6 °F 48.2 °F 82% 29.95 in 6.2 mi North 3.5 mph - N/A   Scattered Clouds
7:30 AM 53.6 °F 50.0 °F 88% 29.98 in 6.2 mi Variable 1.2 mph - N/A   Scattered Clouds
8:00 AM 53.6 °F 50.0 °F 88% 29.98 in 6.2 mi Variable 1.2 mph - N/A   Scattered Clouds
8:30 AM 53.6 °F 50.0 °F 88% 29.98 in 6.2 mi Calm Calm - N/A   Scattered Clouds
9:00 AM 55.4 °F 51.8 °F 88% 29.98 in 6.2 mi Variable 1.2 mph - N/A   Scattered Clouds
9:30 AM 55.4 °F 51.8 °F 88% 30.01 in 6.2 mi Variable 1.2 mph - N/A   Partly Cloudy
10:00 AM 57.2 °F 51.8 °F 82% 30.01 in 6.2 mi Calm Calm - N/A   Partly Cloudy
10:30 AM 60.8 °F 51.8 °F 72% 30.01 in 6.2 mi Calm Calm - N/A   Partly Cloudy
11:00 AM 60.8 °F 51.8 °F 72% 30.01 in 6.2 mi Calm Calm - N/A   Partly Cloudy
11:30 AM 60.8 °F 51.8 °F 72% 30.01 in 6.2 mi Variable 2.3 mph - N/A   Partly Cloudy
12:00 PM 60.8 °F 51.8 °F 72% 30.01 in 6.2 mi South 3.5 mph - N/A   Partly Cloudy
12:30 PM 60.8 °F 53.6 °F 77% 30.01 in 6.2 mi South 4.6 mph - N/A   Partly Cloudy
1:00 PM 61 °F 53 °F 68% 30.01 in 9 mi South 6.9 mph - -   Scattered Clouds
1:00 PM 60.8 °F 55.4 °F 82% 30.01 in 6.2 mi South 5.8 mph - N/A   Partly Cloudy
1:30 PM 62.6 °F 55.4 °F 77% 29.98 in 6.2 mi South 6.9 mph - N/A   Scattered Clouds
2:00 PM 60.8 °F 55.4 °F 82% 29.98 in 6.2 mi SSW 8.1 mph - N/A   Scattered Clouds
2:30 PM 62.6 °F 55.4 °F 77% 29.98 in 6.2 mi SSW 15.0 mph - N/A   Scattered Clouds
3:00 PM 62.6 °F 53.6 °F 72% 29.95 in 6.2 mi SSW 15.0 mph - N/A   Scattered Clouds
3:30 PM 62.6 °F 53.6 °F 72% 29.95 in 6.2 mi SW 13.8 mph - N/A   Scattered Clouds
4:00 PM 62.6 °F 53.6 °F 72% 29.95 in 6.2 mi SW 15.0 mph - N/A   Partly Cloudy
4:30 PM 62.6 °F 53.6 °F 72% 29.95 in 6.2 mi SW 17.3 mph - N/A   Partly Cloudy
5:00 PM 60.8 °F 53.6 °F 77% 29.95 in 6.2 mi SW 17.3 mph - N/A   Partly Cloudy
5:30 PM 60.8 °F 53.6 °F 77% 29.95 in 6.2 mi SW 15.0 mph - N/A   Partly Cloudy
6:00 PM 60.8 °F 55.4 °F 82% 29.95 in 6.2 mi SW 15.0 mph - N/A   Partly Cloudy
6:30 PM 59.0 °F 55.4 °F 88% 29.98 in 5.6 mi SW 11.5 mph - N/A   Partly Cloudy
7:00 PM 59 °F 55 °F 84%  in 6 mi WSW 12.7 mph - -   Scattered Clouds
7:00 PM 59.0 °F 55.4 °F 88% 29.98 in 6.2 mi WSW 12.7 mph - N/A   Partly Cloudy
7:30 PM 59.0 °F 55.4 °F 88% 29.98 in 6.2 mi SW 12.7 mph - N/A   Partly Cloudy
8:00 PM 59.0 °F 55.4 °F 88% 29.98 in 6.2 mi West 5.8 mph - N/A   Partly Cloudy
8:30 PM 57.2 °F 55.4 °F 94% 29.98 in 6.2 mi Variable 1.2 mph - N/A   Partly Cloudy
9:00 PM 55.4 °F 51.8 °F 88% 29.98 in 6.2 mi Variable 1.2 mph - N/A   Partly Cloudy
9:30 PM 53.6 °F 51.8 °F 94% 30.01 in 6.2 mi NNW 4.6 mph - N/A   Partly Cloudy
10:00 PM 55.4 °F 53.6 °F 94% 30.01 in 6.2 mi North 3.5 mph - N/A   Partly Cloudy
10:30 PM 53.6 °F 51.8 °F 94% 30.01 in 6.2 mi Variable 2.3 mph - N/A   Partly Cloudy